COSMOS 2251 DEB, 35016

Orbit data source: Space-Track

COSMOS 2251 DEB, 35016 is space debris in LEO originally from a launch on Wed, 16 Jun 1993 UTC launched from the Plesetsk Missile And Space Complex (PKMTR). The debris from Iridium 33, an American commercial communications satellite, has been tracked extensively since its accidental collision with the defunct Russian satellite Cosmos 2251 in 2009. This event, occurring at high speed in low Earth orbit (LEO), generated thousands of pieces of space debris, significantly increasing the risk of further collisions. The Iridium 33 debris cloud has impacted space traffic management and orbital debris mitigation strategies, making it a subject of ongoing study in space situational awareness.

Loading next visibility...
Identifier
35016, 1993-036AGD
Orbit
LEO
Country
Flag of CISCIS
Related business
Manufacturer
Unknown
Mission
Spacecraft
Bus & Motor
Unknown
Mass
Unknown
Launch date (UTC)
1993-06-16 (33 years ago)
Launch vehicle
Unknown
Launch site
Plesetsk Missile And Space Complex (PKMTR)
Object type
Payload
Rocket body
Debris
Shape & HBR
Unknown shape, 0.1 m
Radar Cross Section
Small (<0.1 m²)

Expand to show TLE details & history
Last TLE update: 2 days ago

TLE from 2 days ago
0 COSMOS 2251 DEB
1 35016U 93036AGD 26035.44878802  .00001414  00000-0  46900-3 0  9995
2 35016  73.9285 195.3023 0112284 100.0557 292.6728 14.35202811875531
Epoch: 2026-02-04T10:46Z
TLE epoch observation values (Epoch: 2026-02-04T10:46:15.284Z)
Latitude
30.23°
Longitude
-91.26433°
Altitude
747.675 km
Speed
7.5 km/s
True Right ascension
13h 39m 39s
True Declination
30° 04' 49"
Sunlit
Object was in full shadow at epoch
Visualization orbit readout
Latitude
Unknown
Longitude
Unknown
Altitude
Unknown
Speed
Unknown
Apparent Right ascension
Unknown
Apparent Declination
Unknown
Sunlit
N/A
Visualization observer readout
Local Sidereal Time
09:27:53
Azimuth
Unknown
Elevation
Unknown
Doppler factor
Unknown
Orbital elements
Apogee altitude
852.311 km
Perigee altitude
691.741 km
Semi-major axis
7,150.163 km
Eccentricity
0.01123
Inclination
73.9285°
RAAN
195.3023°
Arg. of periapsis
100.0557°
True anomaly
291.47918°
Mean anomaly
292.6728°
Eccentric anomaly
292.07663°
Mean motion
3.58979 °/min
Orbital period
100.28 mins
BSTAR
0.000469
Loading maneuver chart data...
Computing Atmospheric mass density...

Documentation

Showing up to 5 results
|